Regional Weather Roundup
Issued by NWS Cleveland, OH

Home | Current Version | Previous Version | Graphics & Text | Print | Product List | Glossary On
Versions: 1 2 3 4 5 6 7 8 9 10 11 12 13 14 15 16 17 18 19 20 21 22 23 24 25 26 27 28 29 30 31 32 33 34 35 36 37 38 39 40 41 42 43 44 45 46 47 48 49 50
000
ASUS41 KCLE 212312
RWRCLE
OHIO REGIONAL WEATHER ROUNDUP
NATIONAL WEATHER SERVICE WILMINGTON, OH
700 PM EDT THU SEP 21 2017

NOTE: "FAIR" INDICATES FEW OR NO CLOUDS BELOW 12,000 FEET WITH NO
SIGNIFICANT WEATHER AND/OR OBSTRUCTIONS TO VISIBILITY.

OHZ001>008-015>018-024>027-034-035-043-044-220000-
   NORTHWEST OHIO

CITY           SKY/WX    TMP DP  RH WIND       PRES   REMARKS
DEFIANCE       FAIR      85  71  63 CALM      30.03R HX  90
FINDLAY        FAIR      89  67  47 CALM      30.03R HX  92
TOLEDO EXPRESS FAIR      84  74  71 CALM      30.03R HX  91
TOLEDO EXEC    FAIR      84  73  69 E6        30.04R HX  90
LIMA           FAIR      84  70  62 S8        30.05R
$$

OHZ009>014-019>023-028>033-038-089-220000-
   NORTHEAST OHIO

CITY           SKY/WX    TMP DP  RH WIND       PRES   REMARKS
CLE-HOPKINS    FAIR      84  65  52 NE8       30.08S
CLE-LAKEFRONT  FAIR      75  68  78 NE7       30.05S
CUY CO. ARPT   CLEAR     81  64  57 NE6       30.08S
LORAIN-ELYRIA  FAIR      80  63  55 NE5       30.07R
ASHTABULA      FAIR      77  61  57 NE5       30.10R
AKRON-CANTON   FAIR      85  60  42 CALM      30.07S
WOOSTER        FAIR      78  67  68 E5        30.07S
MANSFIELD      FAIR      81  68  64 CALM      30.08R
YOUNGSTOWN     FAIR      81  65  58 E5        30.08S
$$

OHZ042-051>053-060>062-070>072-077>081-220000-
  SOUTHWEST OHIO

CITY           SKY/WX    TMP DP  RH WIND       PRES   REMARKS
CINC-COVINGTON MOCLDY    79  72  79 W6        30.04S
CINC-LUNKEN    FAIR      82  74  76 S5        30.03R
HAMILTON       FAIR      86  71  60 SE3       30.04S HX  91
DAYTON         TSTM      76  67  73 N10       30.06R
WRIGHT-PAT AFB MOCLDY    81  70  68 N7        30.05S
DAYTON GENERAL FAIR      83  69  62 CALM      30.04S
WILMINGTON     MOCLDY    78  71  79 CALM      30.05S
$$

OHZ036-037-039>041-045>050-054>059-063>069-073>076-082>088-220000-
  CENTRAL AND SOUTHEAST OHIO

CITY           SKY/WX    TMP DP  RH WIND       PRES   REMARKS
COLUMBUS       FAIR      85  66  53 SE8       30.04S
OSU AIRPORT    CLOUDY    85  68  56 E3        30.04S
BOLTON FIELD   PTCLDY    82  68  61 S5        30.05S
RICKENBACK AFB FAIR      82  66  57 E3        30.04S
NEWARK         FAIR      82  63  52 SE3       30.05S
MARION         FAIR      83  65  54 E7        30.06R
LANCASTER      FAIR      80  67  64 SE5       30.06S
ZANESVILLE     FAIR      84  63  49 CALM      30.06S
NEW PHILLY     FAIR      82  67  60 CALM      30.06F
$$




USA.gov is the U.S. government's official web portal to all federal, state and local government web resources and services.